Weather History for Hurlburt Field, FL

Change the Weather History Date:

Sunday, October 20, 2013

  Actual Average Record
Temperature  
Mean Temperature 67 °F -  
Max Temperature 76 °F 75 °F 86 °F (1998)
Min Temperature 57 °F 57 °F -5 °F (2007)
Cooling Degree Days 2    
Growing Degree Days 17 (Base 50)    
Moisture  
Dew Point 56 °F    
Average Humidity 65    
Maximum Humidity 90    
Minimum Humidity 47    
Precipitation  
Precipitation 0.00 in - - ()
Sea Level Pressure  
Sea Level Pressure 29.99 in    
Wind  
Wind Speed 7 mph (NNE)    
Max Wind Speed 10 mph    
Max Gust Speed -    
Visibility 10 miles    
Events Rain    
Averages and records for this station are not official NWS values.
T = Trace of Precipitation, MM = Missing Value Source: NWS Daily Summary

Daily Weather History Graph

Daily Weather History Graph

Search for Another Location

Airport:

Trip Planner

Search our weather history database for the weather conditions in past years. The results will help you decide how hot, cold, wet, or windy it might be!

Date:

Astronomy

Oct. 20, 2013 Rise Set
Actual Time 6:52 AM CDT 6:09 PM CDT
Civil Twilight 6:28 AM CDT 6:34 PM CDT
Nautical Twilight 6:00 AM CDT 7:02 PM CDT
Astronomical Twilight 5:32 AM CDT 7:30 PM CDT
Moon 7:26 PM CDT (10/20) 8:22 AM CDT (10/20)
Length of Visible Light 12h 06m
Length of Day
11h 17m
Full, 97% of the Moon is Illuminated
Oct 20
Full
Oct 26
Last Quarter
Nov 3
New
Nov 9
First Quarter
Nov 17
Full

Hourly Weather History & Observations

Time (CDT) Temp. Dew Point Humidity Pressure Visibility Wind Dir Wind Speed Gust Speed Precip Events Conditions
12:58 AM 63.7 °F 56.3 °F 77% 29.97 in 10.0 mi NNE 6.9 mph - N/A   Overcast
1:58 AM 62.4 °F 56.5 °F 81% 29.97 in 10.0 mi NNE 6.9 mph - N/A   Mostly Cloudy
2:58 AM 60.1 °F 56.1 °F 87% 29.97 in 10.0 mi North 6.9 mph - N/A   Clear
3:58 AM 58.8 °F 55.4 °F 88% 29.96 in 10.0 mi North 9.2 mph - N/A   Clear
4:58 AM 58.6 °F 55.0 °F 88% 29.98 in 10.0 mi North 9.2 mph - N/A   Clear
5:58 AM 58.1 °F 54.9 °F 89% 29.98 in 10.0 mi North 9.2 mph - N/A   Clear
6:58 AM 57.7 °F 54.9 °F 90% 30.00 in 10.0 mi North 8.1 mph - N/A   Clear
7:58 AM 59.2 °F 55.8 °F 88% 30.03 in 10.0 mi North 9.2 mph - N/A   Scattered Clouds
8:58 AM 61.9 °F 56.1 °F 81% 30.05 in 10.0 mi NNE 9.2 mph - N/A   Clear
9:58 AM 67.5 °F 57.0 °F 69% 30.03 in 10.0 mi NNE 10.4 mph - N/A   Clear
10:53 AM 71.6 °F 55.4 °F 57% 30.03 in 10.0 mi NE 9.2 mph - N/A   Light Drizzle
10:58 AM 71.4 °F 54.7 °F 55% 30.04 in 10.0 mi NNE 10.4 mph - 0.00 in   Light Drizzle
10:59 AM 71.6 °F 55.4 °F 57% 30.03 in 10.0 mi North 10.4 mph - N/A   Clear
11:58 AM 71.8 °F 55.0 °F 55% 30.02 in 10.0 mi NNE 10.4 mph - 0.00 in   Partly Cloudy
12:58 PM 74.5 °F 55.4 °F 51% 30.01 in 10.0 mi NNE 8.1 mph - N/A   Clear
1:58 PM 75.0 °F 55.6 °F 51% 29.98 in 10.0 mi NE 5.8 mph - N/A   Clear
2:00 PM 75.2 °F 55.4 °F 50% 29.97 in 10.0 mi Variable 3.5 mph - N/A Rain Light Rain
2:28 PM 75.2 °F 55.4 °F 50% 29.96 in 10.0 mi ENE 6.9 mph - N/A   Clear
2:32 PM 75.2 °F 55.4 °F 50% 29.96 in 10.0 mi East 6.9 mph - N/A Rain Light Rain
2:58 PM 76.5 °F 55.8 °F 49% 29.97 in 10.0 mi Variable 3.5 mph - 0.00 in Rain Light Rain
3:00 PM 75.2 °F 55.4 °F 50% 29.96 in 10.0 mi NE 5.8 mph - N/A   Clear
3:06 PM 75.2 °F 55.4 °F 50% 29.96 in 10.0 mi NNE 3.5 mph - N/A   Light Drizzle
3:16 PM 75.2 °F 55.4 °F 50% 29.96 in 10.0 mi Variable 2.3 mph - N/A   Clear
3:19 PM 75.2 °F 55.4 °F 50% 29.96 in 10.0 mi Variable 1.2 mph - N/A   Light Drizzle
3:38 PM 77.0 °F 55.4 °F 47% 29.96 in 10.0 mi Variable 4.6 mph - N/A   Partly Cloudy
3:50 PM 75.2 °F 57.2 °F 53% 29.96 in 10.0 mi South 5.8 mph - N/A   Light Drizzle
3:53 PM 75.2 °F 57.2 °F 53% 29.96 in 10.0 mi South 5.8 mph - N/A   Scattered Clouds
3:56 PM 75.2 °F 57.2 °F 53% 29.96 in 10.0 mi Variable 3.5 mph - N/A   Light Drizzle
3:58 PM 75.2 °F 57.2 °F 53% 29.97 in 10.0 mi Variable 4.6 mph - 0.00 in   Light Drizzle
4:00 PM 75.2 °F 57.2 °F 53% 29.96 in 10.0 mi SSE 5.8 mph - N/A   Partly Cloudy
4:58 PM 74.5 °F 57.2 °F 55% 29.98 in 10.0 mi WSW 3.5 mph - 0.00 in   Partly Cloudy
5:58 PM 72.1 °F 56.8 °F 58% 29.98 in 10.0 mi West 3.5 mph - N/A   Clear
6:58 PM 67.3 °F 58.5 °F 73% 29.99 in 10.0 mi NNW 1.2 mph - N/A   Clear
7:58 PM 64.2 °F 58.3 °F 81% 30.00 in 10.0 mi North 5.8 mph - N/A   Scattered Clouds
8:58 PM 61.3 °F 56.5 °F 84% 30.01 in 10.0 mi North 6.9 mph - N/A   Clear
9:58 PM 62.1 °F 55.2 °F 78% 30.02 in 10.0 mi North 6.9 mph - N/A   Clear
10:58 PM 60.3 °F 54.9 °F 82% 30.02 in 10.0 mi North 5.8 mph - N/A   Partly Cloudy
11:58 PM 60.3 °F 54.7 °F 82% 30.01 in 10.0 mi North 4.6 mph - N/A   Clear